ATLAS 5 CENTAUR DEB, 44670

Orbit data source: Space-Track

ATLAS 5 CENTAUR DEB, 44670 is space debris in HEO originally from a launch on Wed, 17 Oct 2018 UTC launched from the Air Force Eastern Test Range (AFETR). Debris objects in space refer to the collection of defunct objects orbiting the Earth. Examples of debris include non-operational satellites, rocket bodies, and fragments generated from explosions, collisions, or faulty payload assembly.

Loading next visibility...
ATLAS 5 CENTAUR DEB details
Identifier
44670, 2018-079AG
Orbit
HEO
Last TLE update22 hours ago
Origin
Flag of USULA (US)
ManufacturerULA Decatur
MissionSpacecraft
Bus & MotorUnknown
MassUnknown
Launch date (UTC)
2018-10-17 (6 years ago)
Launch vehicleUnknown
Launch site
Air Force Eastern Test Range (AFETR)
Object type
Payload
Rocket body
Debris
Shape & HBRUnknown
Radar Cross SectionLarge (>1 m²)

Expand to show TLE details & history

TLE from 22 hours ago
0 ATLAS 5 CENTAUR DEB
1 44670U 18079AG  24360.52948786 -.00000131  00000-0  00000-0 0  9996
2 44670  12.6160  81.2403 4657096 225.5997  85.1974  1.82913225 37202
Epoch: 2024-12-25T12:42Z
Definitive object data (Epoch: 2024-12-25T12:42:27.751Z)
Latitude-0°
Longitude156.05591°
Altitude26,449.256 km
Speed3.189 km/s
True Right ascension05h 24m 46s
True Declination0° 00' 00"
Sunlit
Object was in daylight at TLE epoch
Visualization TLE readout
Latitude3.2851°
Longitude-38.84271°
Altitude11,640.225 km
Speed5.489 km/s
Apparent Right ascension17h 25m 57s
Apparent Declination-9° 14' 28"
Sunlit
Object is in daylight
Visualization observer readout
Local Sidereal Time10:22:59
Azimuth87.067° E
Elevation-17.966°
Doppler factor1
Orbital elements
Apogee altitude35,020.441 km
Perigee altitude8,712.753 km
Semi-major axis28,244.734 km
Eccentricity0.4657096
Inclination12.616°
RAAN81.2403°
Arg. of periapsis225.5997°
True anomaly134.34527°
Mean anomaly85.1974°
Eccentric anomaly110.23393°
Mean motion0.45723 °/min
BSTARUnknown
Orbital period787.35 mins
Loading maneuver chart data...

ATLAS 5 CENTAUR DEB Visibility forecast

Observer location: undefined°, undefined

Span
Click to sort rows by Start time (UTC) header in descending order
Start Az.
Max El. time (UTC)
Max El. Az.
Max El.
End time (UTC)
End Az.
573 mins2024-12-27 01:28:42.260Z208.862° SW2024-12-27 10:10:42.260Z149.471° SSE38.717°2024-12-27 11:01:42.260Z146.855° SSE
|